Vertical_Velocity
-0 -0 -1 -0 -1 -1 -0 -0 1 1 1 1 -0 -0 -0 -1 -2 -2 -1 -0 -1 -1 -1 -1 -0 -1 -1 -1 -0 -0 -1 -2 -2 -2 -1 -0 -0 -1 -1 -2 -1 -1 -1 -1 -0 -1 -1 -0 0 0 0 0 0 0 1 1 0 -0 -1 -2 -2 -0 2 2 -1 -0 1 3 4
-0 -0 -0 0 0 0 -0 -0 0 1 1 1 1 0 -0 -0 -1 -2 -2 -1 -0 -0 -1 -1 -0 -1 -1 -1 0 0 -1 -3 -3 -2 -1 -0 -0 -0 -1 -2 -1 -1 -0 -1 -0 -0 -0 -0 -0 -0 -0 -1 -0 -0 0 1 1 -0 -2 -3 -1 1 1 -0 -1 -0 0 1 2
-0 -1 -1 -1 -1 -1 -1 -2 -1 -0 0 1 1 1 1 0 -0 -1 -1 -1 -0 -0 -0 -1 -1 -1 -1 -1 0 0 -0 -2 -2 -2 -1 -0 -1 -1 -1 -1 -2 -1 -1 -0 -0 0 1 0 0 0 -0 -1 -1 -1 -1 -0 1 0 -1 -1 1 1 0 -1 -1 -0 -0 0 -0
0 -0 -1 -2 -1 -1 -1 -1 -1 -1 -0 0 1 1 1 1 1 0 -0 -1 -1 -1 -0 -1 -1 -1 -0 -0 -0 -1 -1 -0 -0 0 -0 -1 -1 -1 -1 -1 -2 -2 -2 -1 -0 0 1 1 0 -0 -1 -1 -1 -2 -2 -2 -1 0 1 1 2 2 1 -1 -1 -0 0 -0 -1
-0 -0 -0 -0 -0 -0 0 1 0 -0 -0 0 1 1 2 2 1 1 0 -1 -1 -1 -0 0 0 0 1 1 -0 -1 -1 -1 1 1 -0 -1 -1 -1 -1 -1 -1 -1 -1 -1 -0 0 0 0 -0 -1 -1 -2 -2 -1 -1 -1 -1 -0 0 1 2 2 1 -1 -1 -0 1 1 -0
-1 -1 -0 -0 -0 -0 0 1 1 1 1 1 2 2 2 2 2 1 1 -0 -1 -1 -0 0 1 1 -0 -0 -1 -1 -1 -1 0 0 -0 -1 -2 -2 -2 -2 -1 -1 -1 -1 -0 0 0 0 -1 -1 -1 -1 -2 -2 -0 1 0 -0 0 1 2 1 1 -0 -0 -0 0 0 0
0 -0 -0 -0 -0 -0 -0 0 1 1 2 2 2 2 2 2 1 1 1 0 -1 -1 -1 -0 0 -0 -1 -2 -2 -2 -1 -1 -0 0 0 -1 -2 -2 -2 -2 -1 -1 -0 -1 -1 -0 -0 0 -0 -1 -1 -1 -2 -2 0 3 3 2 1 0 1 2 2 1 1 1 1 0 0
1 1 1 0 0 -0 -0 0 0 0 1 2 1 1 0 -0 -0 -1 -1 -2 -1 -0 0 0 0 0 -0 -1 -1 -1 -1 -1 -1 -0 -0 -0 -2 -2 -2 -1 -1 -0 -0 -0 -0 -0 0 0 1 -0 -1 -1 -2 -1 1 3 3 3 1 0 0 2 3 3 2 1 1 1 -0
1 1 1 1 1 0 0 0 1 1 1 1 1 0 -0 -1 -1 -2 -2 -3 -1 0 1 2 1 0 -0 -1 -1 -1 -1 -1 -1 -1 -1 -0 -2 -2 -3 -2 -1 -1 -1 -0 0 1 1 1 0 0 0 0 -0 -0 0 2 2 2 1 0 -0 1 2 4 3 2 1 1 0
0 0 -0 -0 -0 -0 0 -0 1 1 0 -1 -1 -1 -1 -1 -1 -2 -2 -1 -1 1 2 3 2 0 -1 -1 -1 -1 -0 -0 -1 -1 -1 -0 -1 -2 -2 -2 -2 -2 -2 -1 -0 -0 0 1 1 1 2 2 1 0 0 2 2 2 1 1 1 1 1 2 2 2 2 2 1
0 0 0 -0 -1 -1 -0 -1 -1 -1 -1 -2 -2 -2 -2 -2 -2 -2 -1 -0 -0 1 2 4 2 1 -0 -1 -1 -0 0 0 -0 -1 -1 -1 -1 -1 -1 -1 -1 -1 -2 -2 -1 -0 -0 0 1 2 3 4 3 2 1 2 3 2 2 1 2 1 1 0 1 2 2 3 2
-1 -1 -0 -0 -0 -1 -1 -1 -2 -2 -2 -2 -2 -2 -2 -2 -2 -2 -1 -0 1 2 2 3 3 1 0 -0 -1 -1 -0 -0 0 0 -1 -2 -2 -2 -1 -1 -1 -1 -1 -1 -0 -0 -0 0 1 1 2 3 5 5 3 2 2 1 0 -0 1 1 -0 -1 -0 2 3 3 3
-1 -2 -2 -1 -1 -1 -2 -2 -2 -2 -2 -2 -2 -2 -2 -2 -2 -1 -1 1 2 2 2 2 2 2 1 -0 -1 -0 -0 -0 0 0 0 -1 -1 -2 -2 -2 -1 -1 -1 -2 -0 1 1 0 -0 -1 -1 0 4 6 5 4 2 1 -0 -1 -1 -1 -1 -1 -0 2 3 4 4
-2 -2 -2 -2 -2 -2 -2 -2 -2 -2 -2 -2 -1 -1 -1 -2 -2 -1 1 2 3 3 2 0 0 1 1 0 -0 0 0 1 0 0 0 0 -0 -1 -1 -2 -1 -1 -1 -3 -0 1 2 1 -0 -1 -0 -0 2 4 6 5 4 3 2 -0 -2 -2 -2 -1 1 3 4 5 3
-2 -2 -2 -2 -2 -2 -2 -2 -2 -2 -2 -2 -1 -1 -1 -1 -1 1 2 2 3 2 1 -0 -1 -1 -0 1 1 1 0 1 1 0 -0 -1 -1 -1 -1 -2 -1 -2 -2 -4 -1 2 3 3 2 1 1 1 2 3 5 5 5 4 3 0 -2 -2 -2 -0 2 5 7 7 2
-2 -2 -2 -2 -1 -1 -1 -2 -2 -2 -2 -1 -1 -1 -1 0 0 2 2 2 1 -0 -0 -0 -1 -1 -1 0 1 1 -0 -0 0 0 -0 -2 -2 -2 -2 -2 -2 -3 -4 -5 -3 -0 2 4 5 6 5 5 4 4 4 4 5 3 1 -1 -1 -1 0 2 3 8 11 7 1
-2 -1 -1 -1 -1 -1 -2 -2 -1 -1 -1 -1 -1 -0 1 2 1 2 2 3 0 -1 -1 -0 0 -0 -1 -1 -0 -0 -1 -2 -1 -0 -0 -1 -2 -3 -3 -3 -3 -3 -4 -4 -3 -2 -0 1 6 8 9 8 8 7 5 2 2 -0 -2 -3 -0 2 3 3 8 14 14 3 -0
-1 -1 -1 -1 -1 -2 -2 -2 -1 -1 -1 -1 -0 1 2 2 1 1 1 2 1 -0 -1 -2 -0 1 1 0 0 1 0 -1 -1 -1 -0 -1 -1 -2 -3 -3 -3 -3 -3 -3 -2 -0 0 -0 3 5 7 7 8 8 6 2 0 -2 -3 -1 3 5 6 7 17 18 13 -0 -1
-1 -1 -1 -2 -2 -2 -2 -1 -1 -0 -0 1 1 1 1 1 1 0 -0 -0 0 0 -0 -1 -1 0 1 2 2 2 2 1 -1 -1 -1 -0 -1 -2 -3 -4 -5 -4 -4 -3 -1 1 2 2 2 3 3 3 4 5 5 2 -0 -2 -1 3 6 8 11 17 20 15 6 -2 -1
-1 -2 -2 -2 -2 -2 -2 -1 -0 0 1 1 1 0 0 0 0 -0 -1 -1 -0 -0 0 0 -1 -1 -0 1 1 1 1 1 -0 -1 -2 -1 -1 -2 -3 -5 -6 -5 -4 -3 -0 2 3 4 3 2 2 2 2 3 2 1 0 2 5 7 8 11 15 17 12 5 -1 -2 -1
-1 -2 -2 -2 -2 -2 -1 -0 0 1 1 1 0 -0 -0 -0 -0 -0 -0 -0 -1 -0 -0 0 -0 -1 -1 -1 -1 -1 -1 0 0 -0 -1 -2 -1 -1 -2 -4 -6 -5 -3 0 1 2 4 6 4 3 2 3 3 2 1 2 5 7 8 9 10 11 11 7 2 -2 -3 -3 -1
-1 -2 -2 -2 -1 -0 1 1 1 1 0 -0 -0 -1 -1 -1 -1 -1 -1 -1 -1 -0 0 1 0 -0 -0 -0 -0 -1 -1 -1 1 1 1 0 -0 -0 -1 -3 -5 -6 -4 -1 -2 -2 -1 1 2 4 4 3 2 0 1 5 9 10 9 9 10 7 4 0 -2 -3 -4 -3 -3
-1 -1 -2 -2 -0 1 1 1 0 -0 -0 -1 -1 -2 -2 -2 -2 -2 -2 -2 -1 -0 1 1 0 -0 -0 0 1 0 -1 -2 -1 -0 1 2 1 -0 -2 -4 -5 -6 -6 -3 -3 -2 1 6 10 9 4 -2 -3 -2 1 7 14 13 10 8 7 4 1 -1 -3 -4 -4 -4 -4
-1 -1 -2 -1 -0 0 0 -0 -1 -1 -2 -2 -2 -2 -2 -3 -3 -3 -3 -2 -2 -1 -0 -0 -1 -1 -2 -1 1 2 2 -0 -2 -3 -2 0 1 -1 -3 -4 -5 -6 -6 -5 -5 7 25 44 27 11 -0 -3 -2 -1 5 17 21 16 8 6 4 3 1 -2 -3 -4 -3 -3 -3
-1 -2 -2 -1 -0 -0 -0 -1 -2 -2 -1 -1 -1 -2 -2 -3 -3 -3 -3 -3 -3 -2 -2 -2 -3 -3 -3 -2 1 2 3 2 -0 -2 -3 -3 -2 -3 -4 -5 -6 -7 -9 -11 -5 21 50 66 21 1 -3 1 2 11 23 37 26 13 4 4 3 2 -0 -2 -3 -2 -2 -1 1
-2 -2 -2 -1 -0 -0 -1 -1 -1 -1 -1 -1 -2 -2 -3 -2 -2 -2 -3 -4 -4 -3 -3 -4 -4 -3 -1 -0 -1 -1 -1 0 0 -0 -2 -3 -5 -5 -5 -5 -5 -8 -10 -10 14 44 60 43 3 -6 -0 3 12 25 36 38 19 8 3 3 2 -0 -2 -4 -3 -3 -2 -1 2
-2 -2 -2 -1 -1 -1 -1 -0 -0 -1 -2 -2 -3 -3 -2 -1 -2 -3 -4 -4 -4 -4 -4 -4 -3 -0 1 0 -2 -3 -2 -1 -1 -1 -0 -1 -3 -4 -5 -5 -4 -6 -1 17 46 57 53 38 12 4 7 13 20 24 23 19 10 5 3 2 1 -2 -4 -5 -4 -4 -4 -3 -2
-2 -2 -1 -1 -1 -1 -1 -1 -1 -2 -3 -2 -2 -2 -2 -2 -3 -4 -5 -4 -4 -5 -6 -5 -2 1 1 -1 -2 -2 -1 -1 -1 -1 -1 -1 -2 -3 -3 -3 -2 -3 10 52 58 47 41 61 41 27 20 20 14 7 2 2 4 4 3 1 -0 -2 -3 -3 -3 -3 -4 -4 -4
-2 -1 -1 -1 -1 -1 -1 -1 -1 -2 -2 -2 -2 -2 -2 -3 -4 -5 -6 -5 -4 -3 -3 -2 -1 -1 -1 -1 -1 -2 -2 -1 -0 -0 -2 -3 -4 -4 -4 -2 0 2 19 64 53 31 22 52 48 37 25 20 11 5 2 4 4 3 2 -0 -2 -2 -3 -2 -2 -2 -2 -2 -3
-1 -1 -1 -1 -1 -1 -2 -1 -1 -1 -2 -2 -2 -2 -3 -4 -6 -7 -6 -4 -2 1 4 4 2 1 1 3 1 -1 -3 -2 -0 -0 -2 -4 -5 -5 -5 -3 2 11 31 69 47 19 4 21 23 16 11 16 23 24 22 17 10 5 1 -2 -3 -3 -3 -4 -4 -3 -2 -1 -2
-1 -1 -1 -1 -2 -2 -2 -1 -1 -1 -2 -2 -2 -3 -3 -5 -5 -5 -3 -0 1 2 2 3 2 2 3 4 3 1 -1 -2 -2 -2 -2 -3 -3 -4 -3 -2 1 15 40 76 42 11 -5 3 6 3 -1 -1 4 10 14 14 9 5 2 -1 -2 -2 -2 -1 -1 -1 -1 -1 -2
-1 -1 -2 -2 -3 -3 -3 -2 -2 -2 -2 -2 -2 -3 -4 -5 -4 -2 -0 1 1 -1 -2 -3 -3 -3 -3 -1 1 -0 -2 -3 -2 -2 -2 -2 -2 -2 -2 -1 -3 10 36 70 37 9 -7 -5 2 4 2 -2 -4 -2 1 3 4 2 0 -2 -3 -4 -3 -0 3 5 4 1 -1
-2 -2 -2 -2 -3 -4 -4 -3 -2 -2 -2 -2 -2 -3 -4 -6 -5 -4 -2 -0 1 1 1 1 -1 -2 -1 3 2 -0 -3 -1 -1 -2 -4 -4 -2 -0 1 1 -6 1 20 54 38 16 -3 -10 -6 -1 1 -1 -3 -2 -0 1 0 -1 -2 -2 -2 -2 -3 -3 -1 3 7 7 2
-3 -3 -3 -3 -3 -3 -3 -1 -0 -1 -2 -3 -4 -4 -4 -5 -5 -5 -4 -2 -0 2 4 6 4 4 6 11 8 2 -2 -1 -1 -4 -6 -6 -3 1 3 2 -5 -7 5 36 41 27 6 -11 -10 -7 -4 -3 -4 -4 -3 -1 -1 -1 -0 1 1 2 1 -0 -3 -2 1 7 6
-3 -3 -3 -3 -2 -1 -0 0 1 -1 -2 -4 -6 -6 -6 -4 -3 -3 -3 -3 -1 -0 1 3 3 2 4 11 6 2 -1 -2 -3 -5 -6 -6 -3 1 3 2 -5 -10 -5 23 39 33 15 -7 -10 -9 -7 -6 -5 -4 -3 -2 -1 -0 1 2 3 3 3 2 0 -3 -4 -2 5
-2 -2 -2 -1 0 1 1 1 -1 -2 -4 -5 -6 -7 -7 -5 -4 -3 -3 -3 -2 -1 0 -0 -2 -3 -1 7 2 -0 -1 -2 -4 -5 -5 -5 -3 0 3 1 -7 -12 -7 15 30 31 21 1 -6 -7 -7 -8 -6 -4 -2 -2 -1 1 2 2 2 2 2 2 2 -1 -4 -7 0
-1 -0 0 1 2 2 1 -1 -3 -4 -5 -5 -5 -5 -4 -4 -5 -5 -4 -2 -2 0 2 -0 -4 -4 -1 6 4 2 1 -1 -3 -4 -5 -5 -3 0 2 -1 -7 -11 -7 11 20 26 24 10 -2 -5 -5 -5 -4 -3 -2 -1 -0 1 1 1 1 1 1 1 1 -1 -3 -8 -5
-0 1 2 3 2 2 0 -2 -3 -4 -4 -4 -4 -3 -3 -4 -6 -5 -3 0 2 5 6 1 -3 -3 1 5 5 3 2 0 -1 -3 -4 -4 -2 1 1 -3 -8 -10 -5 8 12 18 21 16 2 -6 -8 -5 -3 -2 -2 -2 -1 -0 0 -0 0 0 0 -0 -0 -1 -3 -5 -6
0 2 3 3 2 0 -1 -2 -2 -2 -2 -3 -3 -4 -4 -4 -4 -3 -0 2 5 9 11 4 -1 -1 2 4 3 2 1 1 -0 -2 -3 -3 -1 1 0 -4 -7 -8 -4 5 7 11 15 18 7 -4 -11 -10 -7 -5 -4 -3 -2 -2 -1 -2 -2 -2 -1 -1 -1 -2 -2 -3 -5
1 2 2 2 0 -1 -2 -2 -0 0 -0 -1 -2 -3 -4 -2 -2 -1 0 1 4 8 10 5 1 1 3 3 2 1 1 0 -1 -2 -2 -0 0 -0 -2 -5 -6 -5 -2 3 4 6 10 15 10 0 -9 -13 -10 -8 -5 -4 -4 -4 -4 -4 -4 -4 -3 -2 -2 -1 -2 -2 -4
1 1 1 1 -0 -1 -1 -1 -0 -0 -1 -1 -1 -2 -2 -1 -0 0 1 1 3 5 6 2 2 3 4 3 2 0 -1 -1 -2 -2 -1 -0 -0 -1 -3 -5 -5 -3 -1 0 1 3 5 9 9 3 -4 -9 -8 -5 -4 -4 -5 -6 -6 -5 -5 -4 -4 -3 -2 -2 -2 -2 -4
Height
1543 1542 1540 1538 1536 1535 1533 1531 1530 1528 1526 1524 1522 1520 1519 1517 1515 1513 1511 1510 1508 1506 1505 1503 1501 1500 1498 1497 1495 1494 1492 1490 1489 1487 1486 1485 1483 1482 1480 1478 1476 1475 1473 1471 1470 1469 1468 1466 1465 1465 1463 1462 1461 1460 1459 1459 1458 1457 1456 1455 1455 1454 1454 1452 1450 1449 1448 1447 1447
1543 1541 1540 1538 1536 1534 1532 1531 1529 1527 1526 1524 1522 1520 1518 1516 1514 1512 1511 1509 1508 1506 1504 1502 1501 1499 1497 1496 1495 1493 1491 1489 1488 1486 1485 1484 1482 1480 1479 1477 1475 1474 1472 1470 1469 1468 1467 1465 1465 1463 1462 1461 1460 1459 1458 1457 1456 1455 1455 1454 1453 1453 1451 1450 1449 1448 1447 1446 1445
1542 1540 1539 1537 1535 1533 1532 1530 1528 1527 1525 1523 1521 1520 1518 1516 1514 1512 1510 1509 1507 1505 1504 1502 1500 1498 1497 1495 1494 1492 1490 1488 1487 1485 1484 1483 1481 1480 1478 1476 1474 1472 1471 1470 1468 1467 1466 1465 1463 1462 1461 1460 1458 1457 1456 1455 1455 1454 1454 1453 1452 1451 1450 1448 1447 1446 1445 1444 1443
1541 1540 1538 1536 1534 1533 1531 1529 1528 1526 1524 1523 1521 1519 1517 1515 1513 1511 1510 1508 1506 1504 1503 1501 1499 1497 1496 1494 1493 1491 1489 1488 1486 1485 1483 1482 1480 1478 1476 1475 1473 1471 1470 1469 1467 1466 1465 1464 1462 1461 1460 1458 1457 1456 1455 1454 1454 1453 1452 1451 1450 1450 1448 1447 1445 1445 1444 1443 1442
1540 1539 1537 1535 1534 1532 1530 1529 1527 1525 1524 1522 1520 1518 1517 1515 1513 1511 1509 1507 1505 1504 1502 1500 1499 1497 1495 1494 1492 1490 1488 1487 1486 1484 1482 1480 1479 1477 1475 1474 1472 1470 1469 1467 1466 1465 1464 1462 1461 1460 1458 1457 1455 1455 1454 1453 1452 1452 1451 1450 1449 1448 1447 1445 1444 1444 1443 1442 1441
1540 1538 1536 1535 1533 1531 1530 1528 1526 1525 1523 1521 1520 1518 1516 1514 1512 1510 1508 1506 1504 1503 1501 1500 1498 1497 1495 1493 1491 1489 1487 1486 1485 1483 1481 1480 1478 1476 1474 1473 1471 1470 1468 1466 1465 1464 1462 1461 1460 1458 1457 1455 1454 1453 1453 1452 1451 1450 1450 1449 1447 1446 1445 1444 1443 1442 1441 1440 1440
1539 1537 1535 1534 1532 1530 1529 1527 1525 1524 1522 1520 1519 1517 1515 1513 1511 1509 1507 1505 1503 1502 1500 1499 1497 1496 1494 1492 1490 1488 1487 1485 1484 1482 1480 1479 1476 1475 1473 1471 1470 1468 1467 1465 1464 1462 1461 1460 1458 1457 1455 1455 1453 1452 1451 1451 1450 1449 1448 1447 1446 1445 1444 1443 1442 1441 1440 1439 1438
1538 1536 1535 1533 1531 1529 1527 1526 1524 1522 1520 1519 1517 1515 1513 1511 1510 1508 1506 1504 1503 1501 1500 1498 1497 1495 1493 1491 1490 1488 1486 1484 1482 1481 1479 1477 1475 1474 1472 1470 1469 1467 1466 1464 1463 1461 1460 1458 1457 1455 1454 1453 1452 1451 1450 1450 1449 1448 1447 1445 1444 1443 1443 1442 1441 1440 1439 1438 1437
1537 1535 1533 1532 1530 1528 1526 1525 1523 1521 1519 1517 1516 1514 1512 1510 1509 1507 1505 1503 1502 1501 1500 1498 1496 1494 1492 1490 1489 1487 1485 1483 1481 1480 1478 1476 1475 1473 1471 1469 1468 1466 1465 1463 1461 1460 1458 1457 1455 1454 1453 1452 1451 1450 1449 1448 1447 1446 1445 1444 1443 1442 1441 1440 1440 1439 1438 1437 1436
1536 1534 1532 1530 1528 1527 1525 1523 1521 1520 1518 1516 1514 1512 1511 1509 1508 1506 1504 1503 1502 1500 1499 1497 1495 1493 1491 1490 1488 1486 1484 1482 1480 1479 1477 1475 1474 1472 1470 1468 1466 1465 1463 1461 1460 1458 1456 1455 1454 1453 1452 1451 1450 1449 1448 1447 1446 1445 1444 1443 1442 1440 1440 1439 1438 1438 1437 1436 1435
1535 1533 1531 1529 1527 1525 1523 1521 1520 1518 1516 1514 1512 1511 1510 1508 1506 1505 1504 1502 1501 1500 1498 1497 1495 1493 1491 1489 1487 1485 1483 1482 1480 1478 1476 1474 1472 1471 1469 1467 1465 1464 1462 1460 1459 1457 1455 1454 1452 1451 1450 1449 1448 1447 1446 1445 1444 1443 1442 1441 1440 1439 1438 1437 1437 1437 1436 1435 1434
1534 1532 1530 1528 1526 1524 1522 1520 1518 1516 1515 1513 1511 1510 1508 1507 1505 1504 1503 1501 1500 1499 1497 1495 1494 1492 1490 1488 1486 1484 1482 1480 1479 1477 1475 1473 1471 1469 1468 1466 1464 1463 1461 1459 1457 1456 1454 1452 1451 1450 1448 1447 1446 1445 1445 1443 1442 1441 1440 1439 1438 1437 1436 1436 1436 1435 1435 1434 1433
1533 1531 1529 1527 1525 1523 1520 1519 1517 1515 1514 1512 1511 1509 1508 1506 1505 1504 1502 1501 1500 1498 1496 1494 1492 1490 1489 1487 1485 1483 1481 1480 1478 1476 1474 1472 1470 1468 1466 1465 1463 1461 1459 1458 1456 1454 1453 1451 1450 1448 1447 1445 1444 1443 1442 1441 1440 1439 1437 1436 1436 1435 1435 1435 1435 1434 1434 1433 1432
1532 1530 1528 1526 1524 1521 1520 1518 1516 1515 1513 1512 1510 1509 1507 1506 1504 1503 1502 1500 1499 1497 1495 1493 1491 1489 1487 1485 1484 1482 1480 1479 1477 1475 1473 1471 1469 1467 1465 1463 1461 1460 1458 1456 1455 1453 1451 1450 1449 1447 1445 1443 1441 1440 1439 1439 1437 1436 1435 1435 1434 1434 1434 1434 1434 1433 1433 1432 1431
1531 1529 1527 1525 1523 1521 1519 1517 1515 1514 1513 1511 1510 1509 1507 1505 1504 1503 1501 1500 1498 1496 1494 1492 1490 1488 1486 1484 1483 1481 1479 1477 1476 1474 1472 1470 1468 1466 1464 1462 1460 1459 1457 1455 1453 1451 1450 1448 1447 1445 1443 1440 1439 1437 1436 1436 1435 1435 1434 1434 1433 1433 1433 1433 1432 1432 1432 1432 1431
1530 1528 1525 1524 1522 1520 1519 1517 1515 1514 1512 1511 1510 1508 1507 1505 1504 1502 1501 1499 1497 1495 1493 1491 1489 1487 1485 1483 1482 1480 1478 1476 1475 1473 1471 1469 1467 1465 1463 1461 1459 1457 1455 1453 1451 1449 1448 1446 1444 1442 1440 1438 1436 1435 1434 1434 1433 1433 1433 1433 1433 1433 1432 1432 1432 1432 1432 1431 1430
1529 1526 1525 1523 1521 1520 1518 1516 1515 1514 1513 1511 1510 1508 1507 1505 1504 1502 1500 1499 1497 1494 1492 1490 1488 1486 1484 1482 1481 1479 1477 1475 1474 1472 1470 1468 1466 1464 1461 1460 1458 1456 1454 1452 1450 1447 1445 1444 1441 1439 1437 1435 1434 1434 1433 1433 1432 1432 1432 1432 1432 1432 1432 1431 1432 1432 1432 1430 1429
1528 1526 1524 1522 1521 1519 1518 1516 1515 1514 1512 1511 1510 1508 1507 1505 1503 1501 1500 1498 1496 1494 1491 1489 1487 1486 1484 1482 1480 1478 1477 1475 1473 1471 1469 1467 1465 1463 1460 1459 1456 1455 1453 1451 1448 1446 1443 1440 1438 1436 1434 1433 1432 1432 1432 1432 1432 1432 1432 1432 1432 1432 1432 1431 1432 1432 1431 1429 1429
1527 1525 1524 1522 1520 1519 1518 1516 1515 1514 1512 1511 1510 1508 1506 1505 1503 1501 1499 1497 1495 1493 1491 1489 1487 1485 1483 1482 1480 1478 1476 1474 1472 1470 1468 1466 1464 1462 1460 1458 1455 1454 1452 1450 1447 1444 1441 1438 1435 1433 1432 1431 1431 1431 1431 1431 1432 1432 1432 1432 1432 1432 1432 1432 1432 1431 1430 1429 1429
1527 1525 1524 1522 1520 1519 1518 1516 1515 1514 1512 1511 1510 1508 1506 1504 1503 1501 1499 1497 1495 1493 1491 1489 1487 1485 1483 1481 1479 1477 1475 1474 1471 1470 1467 1465 1463 1461 1459 1457 1455 1453 1450 1448 1445 1441 1437 1434 1432 1431 1430 1430 1430 1430 1431 1431 1432 1432 1432 1432 1432 1432 1432 1432 1431 1430 1429 1429 1428
1527 1525 1523 1522 1520 1519 1518 1516 1515 1514 1513 1511 1509 1508 1506 1504 1502 1500 1498 1496 1495 1492 1490 1489 1486 1485 1482 1480 1478 1476 1475 1473 1471 1469 1467 1465 1463 1461 1459 1456 1454 1452 1449 1446 1442 1438 1434 1431 1429 1429 1429 1430 1430 1430 1431 1431 1432 1432 1432 1432 1432 1432 1431 1431 1430 1430 1429 1429 1428
1527 1525 1523 1522 1520 1519 1518 1517 1515 1514 1513 1511 1509 1508 1506 1504 1502 1500 1498 1496 1494 1492 1490 1488 1486 1484 1482 1480 1478 1476 1474 1472 1470 1469 1466 1465 1462 1460 1458 1456 1454 1451 1448 1444 1439 1434 1430 1428 1428 1428 1429 1429 1430 1430 1431 1431 1432 1432 1432 1432 1432 1431 1431 1431 1430 1430 1430 1429 1428
1526 1525 1523 1522 1521 1520 1518 1517 1515 1514 1512 1511 1509 1507 1505 1504 1502 1500 1498 1496 1494 1492 1490 1488 1486 1484 1482 1480 1478 1476 1474 1472 1470 1468 1466 1464 1462 1460 1457 1455 1454 1451 1447 1442 1436 1431 1428 1427 1428 1428 1428 1429 1430 1430 1431 1431 1432 1432 1432 1432 1432 1431 1431 1431 1431 1430 1430 1429 1428
1526 1525 1523 1522 1521 1520 1518 1517 1515 1514 1512 1510 1509 1507 1505 1503 1501 1500 1497 1495 1494 1492 1490 1488 1486 1484 1482 1480 1478 1476 1474 1472 1470 1467 1465 1463 1461 1459 1457 1455 1453 1450 1446 1441 1435 1431 1430 1430 1429 1428 1429 1429 1430 1430 1431 1431 1432 1432 1432 1432 1432 1431 1431 1431 1431 1430 1430 1429 1428
1526 1525 1523 1522 1521 1520 1518 1517 1515 1514 1512 1510 1509 1507 1505 1503 1501 1500 1497 1495 1494 1492 1490 1488 1486 1484 1481 1480 1478 1476 1474 1472 1470 1467 1465 1463 1461 1459 1457 1455 1453 1450 1445 1440 1436 1435 1435 1433 1430 1429 1430 1430 1430 1431 1432 1432 1431 1431 1432 1432 1432 1432 1431 1431 1431 1430 1430 1429 1428
1526 1525 1523 1522 1521 1520 1518 1517 1515 1514 1512 1510 1509 1507 1505 1503 1501 1500 1498 1496 1494 1492 1490 1488 1486 1484 1482 1480 1478 1476 1474 1472 1470 1467 1465 1463 1461 1459 1457 1455 1453 1449 1445 1441 1440 1439 1438 1434 1431 1431 1431 1431 1431 1431 1432 1431 1431 1431 1432 1432 1432 1432 1432 1431 1431 1431 1430 1430 1429
1526 1525 1523 1522 1521 1520 1518 1517 1515 1514 1512 1510 1508 1507 1505 1503 1502 1500 1498 1496 1494 1492 1490 1488 1486 1484 1482 1480 1478 1476 1474 1472 1470 1468 1465 1464 1461 1460 1457 1455 1452 1449 1445 1443 1444 1442 1439 1435 1433 1432 1431 1431 1431 1431 1430 1430 1431 1432 1432 1432 1432 1432 1432 1432 1432 1431 1431 1430 1429
1526 1525 1523 1522 1521 1520 1518 1517 1515 1514 1512 1510 1508 1507 1505 1503 1502 1500 1498 1496 1494 1492 1490 1488 1486 1484 1483 1481 1479 1476 1474 1472 1470 1468 1466 1464 1462 1460 1458 1455 1452 1448 1446 1447 1446 1443 1439 1437 1435 1433 1432 1431 1431 1431 1431 1432 1433 1433 1433 1433 1434 1434 1434 1433 1433 1432 1431 1430 1430
1526 1525 1524 1522 1521 1520 1518 1517 1515 1514 1512 1510 1509 1507 1505 1504 1502 1500 1498 1496 1494 1492 1490 1488 1486 1485 1483 1481 1479 1477 1475 1473 1471 1469 1467 1465 1463 1461 1458 1455 1452 1449 1447 1449 1447 1443 1440 1438 1435 1433 1432 1433 1433 1434 1434 1434 1434 1434 1435 1435 1435 1435 1435 1435 1434 1433 1432 1431 1430
1526 1525 1524 1523 1521 1520 1518 1517 1515 1514 1512 1510 1509 1507 1505 1504 1502 1500 1498 1496 1494 1492 1491 1489 1487 1485 1483 1481 1480 1478 1475 1474 1472 1470 1468 1465 1464 1461 1459 1456 1453 1450 1449 1451 1448 1444 1441 1439 1436 1435 1434 1434 1435 1436 1436 1435 1435 1435 1436 1436 1436 1436 1436 1435 1435 1434 1433 1432 1431
1527 1525 1524 1523 1521 1520 1519 1517 1515 1514 1512 1511 1509 1507 1506 1504 1502 1500 1499 1497 1495 1493 1491 1490 1487 1485 1483 1481 1480 1478 1476 1474 1473 1470 1469 1466 1465 1462 1460 1457 1454 1452 1451 1453 1449 1446 1443 1441 1440 1438 1437 1436 1435 1435 1435 1436 1436 1437 1437 1437 1437 1437 1437 1436 1435 1435 1434 1433 1431
1527 1526 1525 1523 1522 1520 1519 1517 1516 1514 1513 1511 1510 1508 1506 1505 1503 1501 1499 1497 1495 1493 1491 1490 1487 1485 1483 1481 1480 1478 1477 1475 1473 1471 1470 1467 1465 1464 1462 1459 1456 1453 1452 1453 1450 1448 1446 1445 1443 1442 1441 1440 1439 1438 1437 1437 1437 1438 1438 1439 1438 1438 1437 1437 1436 1436 1435 1434 1432
1527 1526 1525 1524 1522 1520 1519 1518 1516 1515 1513 1511 1510 1508 1506 1505 1503 1501 1499 1497 1495 1494 1492 1490 1488 1486 1484 1481 1480 1479 1477 1476 1474 1473 1471 1469 1467 1465 1463 1461 1458 1455 1454 1454 1453 1450 1448 1447 1446 1445 1444 1443 1442 1441 1441 1440 1440 1440 1440 1440 1440 1439 1438 1437 1436 1436 1435 1435 1434
1527 1526 1525 1524 1522 1520 1519 1518 1516 1515 1513 1511 1510 1508 1507 1505 1503 1501 1499 1498 1496 1494 1493 1491 1489 1487 1485 1483 1482 1480 1478 1476 1475 1473 1471 1470 1468 1467 1465 1463 1461 1458 1456 1456 1455 1453 1450 1449 1449 1448 1446 1445 1444 1444 1443 1443 1443 1442 1442 1441 1441 1440 1439 1438 1437 1436 1436 1436 1435
1528 1526 1525 1524 1522 1521 1519 1518 1516 1515 1513 1512 1510 1509 1507 1505 1504 1502 1500 1498 1496 1495 1493 1491 1490 1488 1485 1484 1483 1481 1479 1477 1475 1474 1473 1471 1470 1468 1467 1465 1463 1460 1458 1457 1456 1454 1452 1451 1450 1450 1449 1447 1446 1445 1445 1444 1444 1444 1443 1442 1442 1441 1440 1439 1437 1436 1436 1436 1436
1528 1526 1525 1524 1522 1521 1520 1518 1517 1515 1514 1512 1510 1509 1507 1505 1504 1502 1500 1499 1497 1495 1493 1492 1490 1488 1486 1485 1483 1482 1480 1478 1476 1475 1474 1472 1471 1469 1468 1466 1464 1462 1460 1459 1457 1455 1454 1452 1451 1450 1450 1449 1447 1446 1446 1445 1445 1444 1443 1443 1442 1441 1440 1439 1438 1437 1436 1436 1436
1528 1527 1525 1524 1522 1521 1520 1518 1517 1515 1514 1512 1511 1509 1508 1506 1504 1503 1501 1499 1497 1495 1494 1492 1490 1488 1487 1486 1484 1483 1481 1479 1478 1476 1475 1474 1472 1470 1469 1467 1465 1463 1461 1461 1459 1457 1455 1454 1452 1450 1450 1449 1448 1447 1446 1445 1445 1444 1444 1443 1442 1441 1441 1440 1439 1438 1437 1436 1436
1529 1527 1525 1524 1523 1521 1520 1519 1517 1515 1514 1513 1511 1510 1508 1507 1505 1503 1501 1500 1498 1496 1494 1493 1491 1489 1488 1486 1485 1484 1482 1480 1479 1478 1476 1475 1473 1472 1470 1469 1466 1465 1463 1463 1461 1460 1457 1455 1453 1451 1450 1449 1449 1448 1447 1446 1445 1445 1444 1443 1443 1442 1441 1440 1439 1439 1438 1437 1437
1529 1527 1526 1525 1523 1522 1520 1519 1517 1516 1515 1513 1511 1510 1509 1507 1505 1504 1502 1500 1499 1497 1495 1494 1492 1490 1488 1487 1486 1484 1483 1481 1480 1479 1478 1476 1475 1474 1472 1470 1468 1466 1465 1465 1464 1462 1460 1457 1455 1453 1451 1451 1450 1449 1448 1447 1446 1445 1445 1444 1443 1442 1441 1440 1440 1439 1438 1437 1437
1530 1528 1526 1525 1524 1522 1521 1519 1518 1516 1515 1514 1512 1510 1509 1508 1506 1505 1503 1501 1500 1498 1496 1495 1493 1491 1489 1488 1486 1485 1484 1482 1481 1480 1479 1477 1476 1475 1473 1471 1470 1468 1467 1466 1465 1464 1462 1460 1457 1455 1453 1452 1451 1450 1450 1448 1447 1446 1445 1444 1443 1442 1441 1441 1440 1439 1438 1437 1436
1530 1529 1527 1526 1524 1523 1521 1520 1518 1517 1515 1514 1513 1511 1510 1508 1507 1505 1504 1502 1500 1499 1497 1495 1493 1491 1490 1489 1487 1486 1485 1483 1482 1481 1480 1479 1477 1476 1474 1472 1471 1470 1469 1468 1467 1465 1464 1462 1460 1458 1456 1454 1453 1452 1450 1449 1448 1447 1446 1445 1444 1443 1442 1441 1440 1439 1438 1437 1437